Year,Month,Day,Hour,Minute,Value (Times are PST for temperature in C)
2021,04,18,00,00,12.40
2021,04,18,00,01,12.40
2021,04,18,00,02,12.40
2021,04,18,00,03,12.30
2021,04,18,00,04,12.30
2021,04,18,00,05,12.20
2021,04,18,00,06,12.10
2021,04,18,00,07,12.00
2021,04,18,00,08,11.90
2021,04,18,00,09,11.90
2021,04,18,00,10,11.80
2021,04,18,00,11,11.70
2021,04,18,00,12,11.70
2021,04,18,00,13,11.60
2021,04,18,00,14,11.50
2021,04,18,00,15,11.50
2021,04,18,00,16,11.40
2021,04,18,00,17,11.40
2021,04,18,00,18,11.40
2021,04,18,00,19,11.30
2021,04,18,00,20,11.30
2021,04,18,00,21,11.30
2021,04,18,00,22,11.20
2021,04,18,00,23,11.20
2021,04,18,00,24,11.20
2021,04,18,00,25,11.20
2021,04,18,00,26,11.20
2021,04,18,00,27,11.20
2021,04,18,00,28,11.20
2021,04,18,00,29,11.20
2021,04,18,00,30,11.20
2021,04,18,00,31,11.10
2021,04,18,00,32,11.10
2021,04,18,00,33,11.10
2021,04,18,00,34,11.10
2021,04,18,00,35,11.10
2021,04,18,00,36,11.10
2021,04,18,00,37,11.10
2021,04,18,00,38,11.10
2021,04,18,00,39,11.00
2021,04,18,00,40,11.00
2021,04,18,00,41,11.00
2021,04,18,00,42,10.90
2021,04,18,00,43,10.90
2021,04,18,00,44,10.90
2021,04,18,00,45,10.90
2021,04,18,00,46,10.90
2021,04,18,00,47,10.80
2021,04,18,00,48,10.80
2021,04,18,00,49,10.70
2021,04,18,00,50,10.70
2021,04,18,00,51,10.70
2021,04,18,00,52,10.70
2021,04,18,00,53,10.70
2021,04,18,00,54,10.70
2021,04,18,00,55,10.60
2021,04,18,00,56,10.60
2021,04,18,00,57,10.60
2021,04,18,00,58,10.60
2021,04,18,00,59,10.60
2021,04,18,01,00,10.50
2021,04,18,01,01,10.50
2021,04,18,01,02,10.50
2021,04,18,01,03,10.40
2021,04,18,01,04,10.40
2021,04,18,01,05,10.40
2021,04,18,01,06,10.40
2021,04,18,01,07,10.30
2021,04,18,01,08,10.30
2021,04,18,01,09,10.30
2021,04,18,01,10,10.30
2021,04,18,01,11,10.30
2021,04,18,01,12,10.30
2021,04,18,01,13,10.30
2021,04,18,01,14,10.20
2021,04,18,01,15,10.20
2021,04,18,01,16,10.20
2021,04,18,01,17,10.20
2021,04,18,01,18,10.20
2021,04,18,01,19,10.20
2021,04,18,01,20,10.20
2021,04,18,01,21,10.20
2021,04,18,01,22,10.20
2021,04,18,01,23,10.20
2021,04,18,01,24,10.20
2021,04,18,01,25,10.20
2021,04,18,01,26,10.20
2021,04,18,01,27,10.20
2021,04,18,01,28,10.20
2021,04,18,01,29,10.20
2021,04,18,01,30,10.20
2021,04,18,01,31,10.30
2021,04,18,01,32,10.20
2021,04,18,01,33,10.20
2021,04,18,01,34,10.20
2021,04,18,01,35,10.20
2021,04,18,01,36,10.20
2021,04,18,01,37,10.20
2021,04,18,01,38,10.10
2021,04,18,01,39,10.10
2021,04,18,01,40,10.10
2021,04,18,01,41,10.10
2021,04,18,01,42,10.10
2021,04,18,01,43,10.00
2021,04,18,01,44,10.00
2021,04,18,01,45,10.00
2021,04,18,01,46,10.00
2021,04,18,01,47,10.00
2021,04,18,01,48,9.90
2021,04,18,01,49,9.90
2021,04,18,01,50,9.90
2021,04,18,01,51,9.90
2021,04,18,01,52,9.90
2021,04,18,01,53,9.90
2021,04,18,01,54,9.90
2021,04,18,01,55,9.80
2021,04,18,01,56,9.80
2021,04,18,01,57,9.80
2021,04,18,01,58,9.80
2021,04,18,01,59,9.70
2021,04,18,02,00,9.70
2021,04,18,02,01,9.70
2021,04,18,02,02,9.70
2021,04,18,02,03,9.70
2021,04,18,02,04,9.70
2021,04,18,02,05,9.70
2021,04,18,02,06,9.70
2021,04,18,02,07,9.70
2021,04,18,02,08,9.70
2021,04,18,02,09,9.70
2021,04,18,02,10,9.70
2021,04,18,02,11,9.60
2021,04,18,02,12,9.60
2021,04,18,02,13,9.60
2021,04,18,02,14,9.50
2021,04,18,02,15,9.40
2021,04,18,02,16,9.40
2021,04,18,02,17,9.30
2021,04,18,02,18,9.30
2021,04,18,02,19,9.30
2021,04,18,02,20,9.30
2021,04,18,02,21,9.20
2021,04,18,02,22,9.20
2021,04,18,02,23,9.20
2021,04,18,02,24,9.20
2021,04,18,02,25,9.20
2021,04,18,02,26,9.20
2021,04,18,02,27,9.30
2021,04,18,02,28,9.30
2021,04,18,02,29,9.30
2021,04,18,02,30,9.30
2021,04,18,02,31,9.30
2021,04,18,02,32,9.30
2021,04,18,02,33,9.30
2021,04,18,02,34,9.20
2021,04,18,02,35,9.20
2021,04,18,02,36,9.20
2021,04,18,02,37,9.20
2021,04,18,02,38,9.20
2021,04,18,02,39,9.10
2021,04,18,02,40,9.10
2021,04,18,02,41,9.10
2021,04,18,02,42,9.00
2021,04,18,02,43,9.00
2021,04,18,02,44,9.00
2021,04,18,02,45,8.90
2021,04,18,02,46,8.90
2021,04,18,02,47,8.90
2021,04,18,02,48,8.90
2021,04,18,02,49,8.90
2021,04,18,02,50,8.90
2021,04,18,02,51,8.90
2021,04,18,02,52,8.90
2021,04,18,02,53,8.80
2021,04,18,02,54,8.80
2021,04,18,02,55,8.80
2021,04,18,02,56,8.80
2021,04,18,02,57,8.80
2021,04,18,02,58,8.80
2021,04,18,02,59,8.70
2021,04,18,03,00,8.70
2021,04,18,03,01,8.70
2021,04,18,03,02,8.70
2021,04,18,03,03,8.70
2021,04,18,03,04,8.70
2021,04,18,03,05,8.70
2021,04,18,03,06,8.60
2021,04,18,03,07,8.60
2021,04,18,03,08,8.60
2021,04,18,03,09,8.60
2021,04,18,03,10,8.60
2021,04,18,03,11,8.60
2021,04,18,03,12,8.60
2021,04,18,03,13,8.50
2021,04,18,03,14,8.50
2021,04,18,03,15,8.50
2021,04,18,03,16,8.50
2021,04,18,03,17,8.50
2021,04,18,03,18,8.40
2021,04,18,03,19,8.40
2021,04,18,03,20,8.30
2021,04,18,03,21,8.30
2021,04,18,03,22,8.30
2021,04,18,03,23,8.30
2021,04,18,03,24,8.20
2021,04,18,03,25,8.20
2021,04,18,03,26,8.20
2021,04,18,03,27,8.20
2021,04,18,03,28,8.20
2021,04,18,03,29,8.20
2021,04,18,03,30,8.20
2021,04,18,03,31,8.10
2021,04,18,03,32,8.10
2021,04,18,03,33,8.10
2021,04,18,03,34,8.10
2021,04,18,03,35,8.00
2021,04,18,03,36,8.00
2021,04,18,03,37,8.00
2021,04,18,03,38,7.90
2021,04,18,03,39,7.90
2021,04,18,03,40,7.90
2021,04,18,03,41,7.90
2021,04,18,03,42,7.90
2021,04,18,03,43,7.90
2021,04,18,03,44,7.90
2021,04,18,03,45,7.90
2021,04,18,03,46,7.90
2021,04,18,03,47,7.90
2021,04,18,03,48,7.90
2021,04,18,03,49,7.90
2021,04,18,03,50,7.90
2021,04,18,03,51,7.90
2021,04,18,03,52,7.80
2021,04,18,03,53,7.80
2021,04,18,03,54,7.80
2021,04,18,03,55,7.80
2021,04,18,03,56,7.80
2021,04,18,03,57,7.80
2021,04,18,03,58,7.80
2021,04,18,03,59,7.80
2021,04,18,04,00,7.80
2021,04,18,04,01,7.70
2021,04,18,04,02,7.70
2021,04,18,04,03,7.70
2021,04,18,04,04,7.70
2021,04,18,04,05,7.70
2021,04,18,04,06,7.70
2021,04,18,04,07,7.70
2021,04,18,04,08,7.70
2021,04,18,04,09,7.70
2021,04,18,04,10,7.60
2021,04,18,04,11,7.60
2021,04,18,04,12,7.60
2021,04,18,04,13,7.60
2021,04,18,04,14,7.50
2021,04,18,04,15,7.50
2021,04,18,04,16,7.50
2021,04,18,04,17,7.50
2021,04,18,04,18,7.40
2021,04,18,04,19,7.40
2021,04,18,04,20,7.40
2021,04,18,04,21,7.40
2021,04,18,04,22,7.40
2021,04,18,04,23,7.40
2021,04,18,04,24,7.40
2021,04,18,04,25,7.40
2021,04,18,04,26,7.30
2021,04,18,04,27,7.30
2021,04,18,04,28,7.30
2021,04,18,04,29,7.30
2021,04,18,04,30,7.30
2021,04,18,04,31,7.20
2021,04,18,04,32,7.20
2021,04,18,04,33,7.20
2021,04,18,04,34,7.20
2021,04,18,04,35,7.20
2021,04,18,04,36,7.20
2021,04,18,04,37,7.20
2021,04,18,04,38,7.20
2021,04,18,04,39,7.20
2021,04,18,04,40,7.20
2021,04,18,04,41,7.20
2021,04,18,04,42,7.30
2021,04,18,04,43,7.30
2021,04,18,04,44,7.30
2021,04,18,04,45,7.30
2021,04,18,04,46,7.30
2021,04,18,04,47,7.30
2021,04,18,04,48,7.30
2021,04,18,04,49,7.30
2021,04,18,04,50,7.30
2021,04,18,04,51,7.40
2021,04,18,04,52,7.40
2021,04,18,04,53,7.40
2021,04,18,04,54,7.40
2021,04,18,04,55,7.40
2021,04,18,04,56,7.40
2021,04,18,04,57,7.40
2021,04,18,04,58,7.40
2021,04,18,04,59,7.40
2021,04,18,05,00,7.40
2021,04,18,05,01,7.40
2021,04,18,05,02,7.40
2021,04,18,05,03,7.40
2021,04,18,05,04,7.40
2021,04,18,05,05,7.30
2021,04,18,05,06,7.30
2021,04,18,05,07,7.30
2021,04,18,05,08,7.30
2021,04,18,05,09,7.30
2021,04,18,05,10,7.30
2021,04,18,05,11,7.30
2021,04,18,05,12,7.30
2021,04,18,05,13,7.30
2021,04,18,05,14,7.20
2021,04,18,05,15,7.20
2021,04,18,05,16,7.20
2021,04,18,05,17,7.20
2021,04,18,05,18,7.20
2021,04,18,05,19,7.10
2021,04,18,05,20,7.10
2021,04,18,05,21,7.10
2021,04,18,05,22,7.10
2021,04,18,05,23,7.10
2021,04,18,05,24,7.10
2021,04,18,05,25,7.10
2021,04,18,05,26,7.10
2021,04,18,05,27,7.10
2021,04,18,05,28,7.10
2021,04,18,05,29,7.10
2021,04,18,05,30,7.00
2021,04,18,05,31,7.00
2021,04,18,05,32,7.00
2021,04,18,05,33,6.90
2021,04,18,05,34,6.90
2021,04,18,05,35,6.90
2021,04,18,05,36,6.90
2021,04,18,05,37,6.80
2021,04,18,05,38,6.80
2021,04,18,05,39,6.80
2021,04,18,05,40,6.80
2021,04,18,05,41,6.80
2021,04,18,05,42,6.70
2021,04,18,05,43,6.70
2021,04,18,05,44,6.70
2021,04,18,05,45,6.70
2021,04,18,05,46,6.70
2021,04,18,05,47,6.70
2021,04,18,05,48,6.70
2021,04,18,05,49,6.60
2021,04,18,05,50,6.60
2021,04,18,05,51,6.60
2021,04,18,05,52,6.60
2021,04,18,05,53,6.60
2021,04,18,05,54,6.60
2021,04,18,05,55,6.60
2021,04,18,05,56,6.70
2021,04,18,05,57,6.70
2021,04,18,05,58,6.70
2021,04,18,05,59,6.70
2021,04,18,06,00,6.70
2021,04,18,06,01,6.70
2021,04,18,06,02,6.70
2021,04,18,06,03,6.70
2021,04,18,06,04,6.70
2021,04,18,06,05,6.80
2021,04,18,06,06,6.80
2021,04,18,06,07,6.80
2021,04,18,06,08,6.80
2021,04,18,06,09,6.80
2021,04,18,06,10,6.80
2021,04,18,06,11,6.80
2021,04,18,06,12,6.70
2021,04,18,06,13,6.70
2021,04,18,06,14,6.70
2021,04,18,06,15,6.70
2021,04,18,06,16,6.70
2021,04,18,06,17,6.60
2021,04,18,06,18,6.60
2021,04,18,06,19,6.60
2021,04,18,06,20,6.60
2021,04,18,06,21,6.60
2021,04,18,06,22,6.50
2021,04,18,06,23,6.50
2021,04,18,06,24,6.50
2021,04,18,06,25,6.40
2021,04,18,06,26,6.40
2021,04,18,06,27,6.40
2021,04,18,06,28,6.40
2021,04,18,06,29,6.40
2021,04,18,06,30,6.30
2021,04,18,06,31,6.30
2021,04,18,06,32,6.30
2021,04,18,06,33,6.30
2021,04,18,06,34,6.30
2021,04,18,06,35,6.30
2021,04,18,06,36,6.30
2021,04,18,06,37,6.20
2021,04,18,06,38,6.20
2021,04,18,06,39,6.20
2021,04,18,06,40,6.20
2021,04,18,06,41,6.20
2021,04,18,06,42,6.20
2021,04,18,06,43,6.20
2021,04,18,06,44,6.20
2021,04,18,06,45,6.20
2021,04,18,06,46,6.20
2021,04,18,06,47,6.20
2021,04,18,06,48,6.20
2021,04,18,06,49,6.20
2021,04,18,06,50,6.20
2021,04,18,06,51,6.20
2021,04,18,06,52,6.20
2021,04,18,06,53,6.20
2021,04,18,06,54,6.20
2021,04,18,06,55,6.20
2021,04,18,06,56,6.30
2021,04,18,06,57,6.30
2021,04,18,06,58,6.30
2021,04,18,06,59,6.30
2021,04,18,07,00,6.30
2021,04,18,07,01,6.30
2021,04,18,07,02,6.30
2021,04,18,07,03,6.40
2021,04,18,07,04,6.40
2021,04,18,07,05,6.40
2021,04,18,07,06,6.40
2021,04,18,07,07,6.40
2021,04,18,07,08,6.40
2021,04,18,07,09,6.40
2021,04,18,07,10,6.50
2021,04,18,07,11,6.50
2021,04,18,07,12,6.50
2021,04,18,07,13,6.60
2021,04,18,07,14,6.60
2021,04,18,07,15,6.60
2021,04,18,07,16,6.60
2021,04,18,07,17,6.70
2021,04,18,07,18,6.70
2021,04,18,07,19,6.70
2021,04,18,07,20,6.70
2021,04,18,07,21,6.80
2021,04,18,07,22,6.80
2021,04,18,07,23,6.80
2021,04,18,07,24,6.90
2021,04,18,07,25,6.90
2021,04,18,07,26,7.00
2021,04,18,07,27,7.10
2021,04,18,07,28,7.10
2021,04,18,07,29,7.20
2021,04,18,07,30,7.20
2021,04,18,07,31,7.30
2021,04,18,07,32,7.40
2021,04,18,07,33,7.40
2021,04,18,07,34,7.50
2021,04,18,07,35,7.50
2021,04,18,07,36,7.60
2021,04,18,07,37,7.70
2021,04,18,07,38,7.70
2021,04,18,07,39,7.80
2021,04,18,07,40,7.80
2021,04,18,07,41,7.80
2021,04,18,07,42,7.90
2021,04,18,07,43,7.90
2021,04,18,07,44,8.00
2021,04,18,07,45,8.00
2021,04,18,07,46,8.10
2021,04,18,07,47,8.20
2021,04,18,07,48,8.20
2021,04,18,07,49,8.20
2021,04,18,07,50,8.30
2021,04,18,07,51,8.30
2021,04,18,07,52,8.30
2021,04,18,07,53,8.40
2021,04,18,07,54,8.40
2021,04,18,07,55,8.50
2021,04,18,07,56,8.50
2021,04,18,07,57,8.60
2021,04,18,07,58,8.60
2021,04,18,07,59,8.70
2021,04,18,08,00,8.70
2021,04,18,08,01,8.80
2021,04,18,08,02,8.80
2021,04,18,08,03,8.90
2021,04,18,08,04,9.00
2021,04,18,08,05,9.00
2021,04,18,08,06,9.10
2021,04,18,08,07,9.20
2021,04,18,08,08,9.20
2021,04,18,08,09,9.30
2021,04,18,08,10,9.40
2021,04,18,08,11,9.50
2021,04,18,08,12,9.50
2021,04,18,08,13,9.60
2021,04,18,08,14,9.70
2021,04,18,08,15,9.80
2021,04,18,08,16,9.90
2021,04,18,08,17,10.00
2021,04,18,08,18,10.00
2021,04,18,08,19,10.10
2021,04,18,08,20,10.20
2021,04,18,08,21,10.30
2021,04,18,08,22,10.50
2021,04,18,08,23,10.50
2021,04,18,08,24,10.70
2021,04,18,08,25,10.70
2021,04,18,08,26,10.80
2021,04,18,08,27,10.90
2021,04,18,08,28,11.00
2021,04,18,08,29,11.10
2021,04,18,08,30,11.20
2021,04,18,08,31,11.30
2021,04,18,08,32,11.40
2021,04,18,08,33,11.40
2021,04,18,08,34,11.60
2021,04,18,08,35,11.60
2021,04,18,08,36,11.70
2021,04,18,08,37,11.80
2021,04,18,08,38,11.90
2021,04,18,08,39,11.90
2021,04,18,08,40,12.00
2021,04,18,08,41,12.10
2021,04,18,08,42,12.20
2021,04,18,08,43,12.30
2021,04,18,08,44,12.40
2021,04,18,08,45,12.50
2021,04,18,08,46,12.60
2021,04,18,08,47,12.70
2021,04,18,08,48,12.70
2021,04,18,08,49,12.80
2021,04,18,08,50,12.90
2021,04,18,08,51,13.00
2021,04,18,08,52,13.10
2021,04,18,08,53,13.20
2021,04,18,08,54,13.20
2021,04,18,08,55,13.30
2021,04,18,08,56,13.40
2021,04,18,08,57,13.50
2021,04,18,08,58,13.50
2021,04,18,08,59,13.60
2021,04,18,09,00,13.70
2021,04,18,09,01,13.80
2021,04,18,09,02,13.80
2021,04,18,09,03,13.90
2021,04,18,09,04,14.00
2021,04,18,09,05,14.00
2021,04,18,09,06,14.10
2021,04,18,09,07,14.20
2021,04,18,09,08,14.30
2021,04,18,09,09,14.30
2021,04,18,09,10,14.30
2021,04,18,09,11,14.40
2021,04,18,09,12,14.40
2021,04,18,09,13,14.50
2021,04,18,09,14,14.50
2021,04,18,09,15,14.60
2021,04,18,09,16,14.60
2021,04,18,09,17,14.60
2021,04,18,09,18,14.60
2021,04,18,09,19,14.70
2021,04,18,09,20,14.70
2021,04,18,09,21,14.70
2021,04,18,09,22,14.70
2021,04,18,09,23,14.70
2021,04,18,09,24,14.70
2021,04,18,09,25,14.70
2021,04,18,09,26,14.70
2021,04,18,09,27,14.70
2021,04,18,09,28,14.70
2021,04,18,09,29,14.80
2021,04,18,09,30,14.80
2021,04,18,09,31,14.80
2021,04,18,09,32,14.90
2021,04,18,09,33,14.90
2021,04,18,09,34,14.90
2021,04,18,09,35,14.90
2021,04,18,09,36,15.00
2021,04,18,09,37,15.00
2021,04,18,09,38,15.00
2021,04,18,09,39,15.00
2021,04,18,09,40,15.10
2021,04,18,09,41,15.10
2021,04,18,09,42,15.10
2021,04,18,09,43,15.10
2021,04,18,09,44,15.20
2021,04,18,09,45,15.20
2021,04,18,09,46,15.30
2021,04,18,09,47,15.30
2021,04,18,09,48,15.40
2021,04,18,09,49,15.40
2021,04,18,09,50,15.50
2021,04,18,09,51,15.50
2021,04,18,09,52,15.60
2021,04,18,09,53,15.60
2021,04,18,09,54,15.60
2021,04,18,09,55,15.60
2021,04,18,09,56,15.60
2021,04,18,09,57,15.70
2021,04,18,09,58,15.70
2021,04,18,09,59,15.70
2021,04,18,10,00,15.80
2021,04,18,10,01,15.90
2021,04,18,10,02,15.90
2021,04,18,10,03,16.00
2021,04,18,10,04,16.00
2021,04,18,10,05,16.00
2021,04,18,10,06,16.10
2021,04,18,10,07,16.10
2021,04,18,10,08,16.10
2021,04,18,10,09,16.10
2021,04,18,10,10,16.20
2021,04,18,10,11,16.20
2021,04,18,10,12,16.20
2021,04,18,10,13,16.20
2021,04,18,10,14,16.30
2021,04,18,10,15,16.40
2021,04,18,10,16,16.50
2021,04,18,10,17,16.60
2021,04,18,10,18,16.60
2021,04,18,10,19,16.60
2021,04,18,10,20,16.70
2021,04,18,10,21,16.70
2021,04,18,10,22,16.70
2021,04,18,10,23,16.80
2021,04,18,10,24,16.80
2021,04,18,10,25,16.90
2021,04,18,10,26,16.90
2021,04,18,10,27,16.90
2021,04,18,10,28,16.90
2021,04,18,10,29,16.90
2021,04,18,10,30,16.90
2021,04,18,10,31,16.90
2021,04,18,10,32,17.00
2021,04,18,10,33,17.00
2021,04,18,10,34,17.00
2021,04,18,10,35,17.00
2021,04,18,10,36,17.00
2021,04,18,10,37,17.00
2021,04,18,10,38,17.00
2021,04,18,10,39,17.10
2021,04,18,10,40,17.10
2021,04,18,10,41,17.20
2021,04,18,10,42,17.20
2021,04,18,10,43,17.20
2021,04,18,10,44,17.30
2021,04,18,10,45,17.30
2021,04,18,10,46,17.30
2021,04,18,10,47,17.30
2021,04,18,10,48,17.40
2021,04,18,10,49,17.50
2021,04,18,10,50,17.50
2021,04,18,10,51,17.60
2021,04,18,10,52,17.60
2021,04,18,10,53,17.70
2021,04,18,10,54,17.70
2021,04,18,10,55,17.80
2021,04,18,10,56,17.80
2021,04,18,10,57,17.90
2021,04,18,10,58,17.90
2021,04,18,10,59,18.00
2021,04,18,11,00,18.10
2021,04,18,11,01,18.10
2021,04,18,11,02,18.10
2021,04,18,11,03,18.10
2021,04,18,11,04,18.10
2021,04,18,11,05,18.10
2021,04,18,11,06,18.20
2021,04,18,11,07,18.20
2021,04,18,11,08,18.20
2021,04,18,11,09,18.20
2021,04,18,11,10,18.20
2021,04,18,11,11,18.30
2021,04,18,11,12,18.30
2021,04,18,11,13,18.30
2021,04,18,11,14,18.30
2021,04,18,11,15,18.40
2021,04,18,11,16,18.40
2021,04,18,11,17,18.50
2021,04,18,11,18,18.50
2021,04,18,11,19,18.60
2021,04,18,11,20,18.70
2021,04,18,11,21,18.70
2021,04,18,11,22,18.80
2021,04,18,11,23,18.80
2021,04,18,11,24,18.90
2021,04,18,11,25,19.00
2021,04,18,11,26,19.00
2021,04,18,11,27,19.10
2021,04,18,11,28,19.20
2021,04,18,11,29,19.20
2021,04,18,11,30,19.30
2021,04,18,11,31,19.30
2021,04,18,11,32,19.40
2021,04,18,11,33,19.50
2021,04,18,11,34,19.50
2021,04,18,11,35,19.60
2021,04,18,11,36,19.70
2021,04,18,11,37,19.70
2021,04,18,11,38,19.70
2021,04,18,11,39,19.70
2021,04,18,11,40,19.70
2021,04,18,11,41,19.70
2021,04,18,11,42,19.60
2021,04,18,11,43,19.50
2021,04,18,11,44,19.40
2021,04,18,11,45,19.30
2021,04,18,11,46,19.20
2021,04,18,11,47,19.20
2021,04,18,11,48,19.20
2021,04,18,11,49,19.10
2021,04,18,11,50,19.10
2021,04,18,11,51,19.10
2021,04,18,11,52,19.10
2021,04,18,11,53,19.10
2021,04,18,11,54,19.10
2021,04,18,11,55,19.00
2021,04,18,11,56,18.90
2021,04,18,11,57,18.90
2021,04,18,11,58,19.00
2021,04,18,11,59,19.00
2021,04,18,12,00,19.10
2021,04,18,12,01,19.10
2021,04,18,12,02,19.10
2021,04,18,12,03,19.00
2021,04,18,12,04,19.00
2021,04,18,12,05,19.10
2021,04,18,12,06,19.10
2021,04,18,12,07,19.20
2021,04,18,12,08,19.20
2021,04,18,12,09,19.30
2021,04,18,12,10,19.40
2021,04,18,12,11,19.40
2021,04,18,12,12,19.40
2021,04,18,12,13,19.40
2021,04,18,12,14,19.40
2021,04,18,12,15,19.40
2021,04,18,12,16,19.40
2021,04,18,12,17,19.40
2021,04,18,12,18,19.40
2021,04,18,12,19,19.40
2021,04,18,12,20,19.40
2021,04,18,12,21,19.40
2021,04,18,12,22,19.40
2021,04,18,12,23,19.40
2021,04,18,12,24,19.40
2021,04,18,12,25,19.50
2021,04,18,12,26,19.50
2021,04,18,12,27,19.60
2021,04,18,12,28,19.50
2021,04,18,12,29,19.50
2021,04,18,12,30,19.50
2021,04,18,12,31,19.40
2021,04,18,12,32,19.40
2021,04,18,12,33,19.40
2021,04,18,12,34,19.40
2021,04,18,12,35,19.40
2021,04,18,12,36,19.40
2021,04,18,12,37,19.40
2021,04,18,12,38,19.50
2021,04,18,12,39,19.50
2021,04,18,12,40,19.60
2021,04,18,12,41,19.70
2021,04,18,12,42,19.70
2021,04,18,12,43,19.80
2021,04,18,12,44,19.80
2021,04,18,12,45,19.90
2021,04,18,12,46,19.90
2021,04,18,12,47,20.00
2021,04,18,12,48,20.00
2021,04,18,12,49,20.10
2021,04,18,12,50,20.10
2021,04,18,12,51,20.20
2021,04,18,12,52,20.20
2021,04,18,12,53,20.20
2021,04,18,12,54,20.20
2021,04,18,12,55,20.30
2021,04,18,12,56,20.30
2021,04,18,12,57,20.30
2021,04,18,12,58,20.40
2021,04,18,12,59,20.40
2021,04,18,13,00,20.50
2021,04,18,13,01,20.50
2021,04,18,13,02,20.60
2021,04,18,13,03,20.60
2021,04,18,13,04,20.70
2021,04,18,13,05,20.70
2021,04,18,13,06,20.60
2021,04,18,13,07,20.60
2021,04,18,13,08,20.60
2021,04,18,13,09,20.60
2021,04,18,13,10,20.60
2021,04,18,13,11,20.70
2021,04,18,13,12,20.70
2021,04,18,13,13,20.70
2021,04,18,13,14,20.70
2021,04,18,13,15,20.60
2021,04,18,13,16,20.50
2021,04,18,13,17,20.40
2021,04,18,13,18,20.40
2021,04,18,13,19,20.30
2021,04,18,13,20,20.30
2021,04,18,13,21,20.30
2021,04,18,13,22,20.30
2021,04,18,13,23,20.10
2021,04,18,13,24,20.00
2021,04,18,13,25,19.90
2021,04,18,13,26,19.90
2021,04,18,13,27,19.80
2021,04,18,13,28,19.70
2021,04,18,13,29,19.70
2021,04,18,13,30,19.60
2021,04,18,13,31,19.60
2021,04,18,13,32,19.60
2021,04,18,13,33,19.60
2021,04,18,13,34,19.60
2021,04,18,13,35,19.60
2021,04,18,13,36,19.50
2021,04,18,13,37,19.50
2021,04,18,13,38,19.40
2021,04,18,13,39,19.40
2021,04,18,13,40,19.40
2021,04,18,13,41,19.40
2021,04,18,13,42,19.40
2021,04,18,13,43,19.40
2021,04,18,13,44,19.50
2021,04,18,13,45,19.50
2021,04,18,13,46,19.50
2021,04,18,13,47,19.60
2021,04,18,13,48,19.70
2021,04,18,13,49,19.70
2021,04,18,13,50,19.80
2021,04,18,13,51,19.80
2021,04,18,13,52,19.90
2021,04,18,13,53,19.90
2021,04,18,13,54,20.00
2021,04,18,13,55,20.10
2021,04,18,13,56,20.10
2021,04,18,13,57,20.10
2021,04,18,13,58,20.10
2021,04,18,13,59,20.10
2021,04,18,14,00,20.10
2021,04,18,14,01,20.20
2021,04,18,14,02,20.20
2021,04,18,14,03,20.20
2021,04,18,14,04,20.20
2021,04,18,14,05,20.10
2021,04,18,14,06,20.10
2021,04,18,14,07,20.10
2021,04,18,14,08,20.10
2021,04,18,14,09,20.10
2021,04,18,14,10,20.20
2021,04,18,14,11,20.20
2021,04,18,14,12,20.30
2021,04,18,14,13,20.30
2021,04,18,14,14,20.40
2021,04,18,14,15,20.50
2021,04,18,14,16,20.50
2021,04,18,14,17,20.60
2021,04,18,14,18,20.70
2021,04,18,14,19,20.70
2021,04,18,14,20,20.80
2021,04,18,14,21,20.80
2021,04,18,14,22,20.80
2021,04,18,14,23,20.80
2021,04,18,14,24,20.80
2021,04,18,14,25,20.90
2021,04,18,14,26,21.00
2021,04,18,14,27,21.10
2021,04,18,14,28,21.20
2021,04,18,14,29,21.30
2021,04,18,14,30,21.40
2021,04,18,14,31,21.40
2021,04,18,14,32,21.50
2021,04,18,14,33,21.50
2021,04,18,14,34,21.50
2021,04,18,14,35,21.40
2021,04,18,14,36,21.30
2021,04,18,14,37,21.30
2021,04,18,14,38,21.30
2021,04,18,14,39,21.30
2021,04,18,14,40,21.30
2021,04,18,14,41,21.30
2021,04,18,14,42,21.30
2021,04,18,14,43,21.30
2021,04,18,14,44,21.30
2021,04,18,14,45,21.20
2021,04,18,14,46,21.20
2021,04,18,14,47,21.20
2021,04,18,14,48,21.20
2021,04,18,14,49,21.30
2021,04,18,14,50,21.30
2021,04,18,14,51,21.40
2021,04,18,14,52,21.40
2021,04,18,14,53,21.50
2021,04,18,14,54,21.60
2021,04,18,14,55,21.60
2021,04,18,14,56,21.60
2021,04,18,14,57,21.70
2021,04,18,14,58,21.70
2021,04,18,14,59,21.80
2021,04,18,15,00,21.90
2021,04,18,15,01,21.90
2021,04,18,15,02,22.00
2021,04,18,15,03,22.00
2021,04,18,15,04,22.00
2021,04,18,15,05,22.00
2021,04,18,15,06,22.00
2021,04,18,15,07,22.00
2021,04,18,15,08,22.00
2021,04,18,15,09,21.90
2021,04,18,15,10,22.00
2021,04,18,15,11,22.00
2021,04,18,15,12,22.00
2021,04,18,15,13,22.00
2021,04,18,15,14,22.10
2021,04,18,15,15,22.10
2021,04,18,15,16,22.10
2021,04,18,15,17,22.10
2021,04,18,15,18,22.10
2021,04,18,15,19,22.10
2021,04,18,15,20,22.10
2021,04,18,15,21,22.10
2021,04,18,15,22,22.10
2021,04,18,15,23,22.10
2021,04,18,15,24,22.10
2021,04,18,15,25,22.20
2021,04,18,15,26,22.20
2021,04,18,15,27,22.30
2021,04,18,15,28,22.40
2021,04,18,15,29,22.40
2021,04,18,15,30,22.50
2021,04,18,15,31,22.60
2021,04,18,15,32,22.60
2021,04,18,15,33,22.60
2021,04,18,15,34,22.60
2021,04,18,15,35,22.60
2021,04,18,15,36,22.60
2021,04,18,15,37,22.70
2021,04,18,15,38,22.70
2021,04,18,15,39,22.70
2021,04,18,15,40,22.70
2021,04,18,15,41,22.70
2021,04,18,15,42,22.80
2021,04,18,15,43,22.90
2021,04,18,15,44,22.90
2021,04,18,15,45,23.00
2021,04,18,15,46,23.00
2021,04,18,15,47,23.10
2021,04,18,15,48,23.10
2021,04,18,15,49,23.10
2021,04,18,15,50,23.20
2021,04,18,15,51,23.20
2021,04,18,15,52,23.20
2021,04,18,15,53,23.20
2021,04,18,15,54,23.20
2021,04,18,15,55,23.30
2021,04,18,15,56,23.30
2021,04,18,15,57,23.30
2021,04,18,15,58,23.30
2021,04,18,15,59,23.30
2021,04,18,16,00,23.30
2021,04,18,16,01,23.30
2021,04,18,16,02,23.30
2021,04,18,16,03,23.30
2021,04,18,16,04,23.40
2021,04,18,16,05,23.40
2021,04,18,16,06,23.40
2021,04,18,16,07,23.40
2021,04,18,16,08,23.40
2021,04,18,16,09,23.40
2021,04,18,16,10,23.40
2021,04,18,16,11,23.40
2021,04,18,16,12,23.30
2021,04,18,16,13,23.20
2021,04,18,16,14,23.20
2021,04,18,16,15,23.10
2021,04,18,16,16,23.10
2021,04,18,16,17,23.10
2021,04,18,16,18,23.00
2021,04,18,16,19,22.90
2021,04,18,16,20,22.90
2021,04,18,16,21,22.80
2021,04,18,16,22,22.80
2021,04,18,16,23,22.80
2021,04,18,16,24,22.80
2021,04,18,16,25,22.80
2021,04,18,16,26,22.70
2021,04,18,16,27,22.70
2021,04,18,16,28,22.70
2021,04,18,16,29,22.80
2021,04,18,16,30,22.80
2021,04,18,16,31,22.80
2021,04,18,16,32,22.80
2021,04,18,16,33,22.80
2021,04,18,16,34,22.80
2021,04,18,16,35,22.80
2021,04,18,16,36,22.70
2021,04,18,16,37,22.70
2021,04,18,16,38,22.70
2021,04,18,16,39,22.80
2021,04,18,16,40,22.80
2021,04,18,16,41,22.80
2021,04,18,16,42,22.80
2021,04,18,16,43,22.80
2021,04,18,16,44,22.90
2021,04,18,16,45,22.90
2021,04,18,16,46,22.90
2021,04,18,16,47,23.00
2021,04,18,16,48,23.00
2021,04,18,16,49,23.00
2021,04,18,16,50,22.90
2021,04,18,16,51,22.90
2021,04,18,16,52,22.90
2021,04,18,16,53,22.90
2021,04,18,16,54,22.90
2021,04,18,16,55,22.90
2021,04,18,16,56,23.00
2021,04,18,16,57,23.00
2021,04,18,16,58,23.10
2021,04,18,16,59,23.10
2021,04,18,17,00,23.20
2021,04,18,17,01,23.30
2021,04,18,17,02,23.30
2021,04,18,17,03,23.40
2021,04,18,17,04,23.50
2021,04,18,17,05,23.70
2021,04,18,17,06,23.80
2021,04,18,17,07,24.00
2021,04,18,17,08,24.00
2021,04,18,17,09,24.10
2021,04,18,17,10,24.20
2021,04,18,17,11,24.20
2021,04,18,17,12,24.30
2021,04,18,17,13,24.30
2021,04,18,17,14,24.30
2021,04,18,17,15,24.30
2021,04,18,17,16,24.40
2021,04,18,17,17,24.40
2021,04,18,17,18,24.40
2021,04,18,17,19,24.50
2021,04,18,17,20,24.50
2021,04,18,17,21,24.60
2021,04,18,17,22,24.60
2021,04,18,17,23,24.70
2021,04,18,17,24,24.70
2021,04,18,17,25,24.80
2021,04,18,17,26,24.80
2021,04,18,17,27,24.80
2021,04,18,17,28,24.80
2021,04,18,17,29,24.80
2021,04,18,17,30,24.70
2021,04,18,17,31,24.70
2021,04,18,17,32,24.70
2021,04,18,17,33,24.70
2021,04,18,17,34,24.70
2021,04,18,17,35,24.70
2021,04,18,17,36,24.70